Location: Bijele Vode
(45.2833°N, 16.2000°E)
Time: 16:42:47
(UTC+00:00)

Cosmos 1833 Rocket - Pass Details

Date: 18 September 2020
Orbit: 831 x 841 km, 71.0° (Epoch: 20 October)

Event Time Altitude Azimuth Distance (km) Brightness Sun altitude
Rises 20:01:09 0° 337° (NNW) 3,406 6.7 -30.3°
Reaches altitude 10° 20:03:40 10° 342° (NNW) 2,468 5.8 -30.7°
Enters shadow 20:07:46 43° 12° (NNE) 1,178 3.5 -31.2°
